Weather History for KICT - July, 2014

Change the Weather History Date:

Thursday, July 3, 2014

  Actual Average Record
Temperature  
Mean Temperature 69 °F 80 °F  
Max Temperature 81 °F 92 °F 108 °F (1990)
Min Temperature 57 °F 69 °F 53 °F (1924)
Degree Days  
Heating Degree Days 0 0  
Month to date heating degree days 0 0  
Since 1 June heating degree days 0 6  
Since 1 July heating degree days 0 0  
Cooling Degree Days 4 15  
Month to date cooling degree days 21 45  
Year to date cooling degree days 630 510  
Since 1 June cooling degree days 363 374  
Growing Degree Days 19 (Base 50)    
Moisture  
Dew Point 54 °F    
Average Humidity 61    
Maximum Humidity 80    
Minimum Humidity 42    
Precipitation  
Precipitation 0.00 in 0.13 in 2.67 in (2005)
Month to date precipitation 1.12 0.38  
Year to date precipitation 17.65 17.44  
Snow  
Snow 0.00 in 0.00 in 0.00 in (2007)
Month to date snowfall 0.0 0.0  
Since 1 June snowfall 0.0 0.0  
Since 1 July snowfall 0.0 0.0  
Snow Depth 0.00 in    
Sea Level Pressure  
Sea Level Pressure 30.19 in    
Wind  
Wind Speed 6 mph (ESE)    
Max Wind Speed 14 mph    
Max Gust Speed 17 mph    
Visibility 10 miles    
Events      
T = Trace of Precipitation, MM = Missing Value Source: NWS Daily Summary

Daily Weather History Graph

Daily Weather History Graph

Search for Another Location

Airport or City:

Trip Planner

Search our weather history database for the weather conditions in past years. The results will help you decide how hot, cold, wet, or windy it might be!

Date:

Astronomy

Jul. 03, 2014 Rise Set
Actual Time 6:12 AM CDT 8:54 PM CDT
Civil Twilight 5:41 AM CDT 9:25 PM CDT
Nautical Twilight 5:03 AM CDT 10:04 PM CDT
Astronomical Twilight 4:19 AM CDT 10:48 PM CDT
Moon 12:06 PM CDT (7/3) No Moon Set
Length of Visible Light 15h 44m
Length of Day
14h 42m
Waxing Crescent, 33% of the Moon is Illuminated
Jul 3
Waxing Crescent
Jul 5
First Quarter
Jul 12
Full
Jul 18
Last Quarter
Jul 26
New

Hourly Weather History & Observations

Time (CDT) Temp. Heat Index Dew Point Humidity Pressure Visibility Wind Dir Wind Speed Gust Speed Precip Events Conditions
12:53 AM 62.1 °F - 52.0 °F 70% 30.19 in 10.0 mi ESE 8.1 mph - N/A   Clear
1:53 AM 60.1 °F - 52.0 °F 75% 30.21 in 10.0 mi SE 5.8 mph - N/A   Clear
2:53 AM 59.0 °F - 52.0 °F 78% 30.20 in 10.0 mi ESE 4.6 mph - N/A   Partly Cloudy
3:53 AM 57.9 °F - 52.0 °F 81% 30.20 in 10.0 mi East 5.8 mph - N/A   Clear
4:53 AM 57.9 °F - 52.0 °F 81% 30.20 in 10.0 mi Calm Calm - N/A   Clear
5:53 AM 57.9 °F - 51.1 °F 78% 30.20 in 10.0 mi Calm Calm - N/A   Scattered Clouds
6:53 AM 57.9 °F - 52.0 °F 81% 30.21 in 10.0 mi Calm Calm - N/A   Partly Cloudy
7:53 AM 62.1 °F - 53.1 °F 72% 30.22 in 10.0 mi SE 5.8 mph - N/A   Partly Cloudy
8:53 AM 66.2 °F - 51.8 °F 60% 30.24 in 10.0 mi East 5.8 mph - N/A   Partly Cloudy
9:53 AM 69.1 °F - 53.1 °F 57% 30.22 in 10.0 mi Variable 6.9 mph - N/A   Partly Cloudy
10:53 AM 71.1 °F - 55.0 °F 57% 30.22 in 10.0 mi SE 8.1 mph - N/A   Partly Cloudy
11:53 AM 73.0 °F - 55.0 °F 53% 30.22 in 10.0 mi East 5.8 mph - N/A   Partly Cloudy
12:53 PM 75.9 °F - 57.0 °F 52% 30.21 in 10.0 mi Variable 4.6 mph - N/A   Partly Cloudy
1:53 PM 78.8 °F - 57.2 °F 47% 30.22 in 10.0 mi Calm Calm - N/A   Partly Cloudy
2:53 PM 79.0 °F - 57.0 °F 47% 30.19 in 10.0 mi Variable 4.6 mph - N/A   Partly Cloudy
3:53 PM 80.1 °F 80.2 °F 55.9 °F 43% 30.17 in 10.0 mi Variable 6.9 mph - N/A   Partly Cloudy
4:53 PM 81.0 °F 81.1 °F 57.9 °F 45% 30.16 in 10.0 mi Variable 5.8 mph - N/A   Partly Cloudy
5:53 PM 80.1 °F 80.4 °F 57.0 °F 45% 30.13 in 10.0 mi SSE 9.2 mph - N/A   Partly Cloudy
6:53 PM 80.1 °F 80.2 °F 55.9 °F 43% 30.12 in 10.0 mi SE 11.5 mph - N/A   Clear
7:53 PM 77.0 °F - 55.9 °F 48% 30.12 in 10.0 mi ESE 12.7 mph - N/A   Clear
8:53 PM 75.0 °F - 54.0 °F 48% 30.12 in 10.0 mi ESE 10.4 mph - N/A   Clear
9:53 PM 72.0 °F - 55.0 °F 55% 30.14 in 10.0 mi ESE 10.4 mph - N/A   Clear
10:53 PM 70.0 °F - 55.9 °F 61% 30.17 in 10.0 mi ESE 9.2 mph - N/A   Partly Cloudy
11:53 PM 69.1 °F - 57.0 °F 65% 30.21 in 10.0 mi SE 5.8 mph - N/A   Mostly Cloudy